Home > Weather > Bandar Lampung > Past weeks

Flag for Indonesia Weather for the Past 2 Weeks in Bandar Lampung, Lampung, Indonesia

Now
82 °F

Scattered clouds.


Feels Like: 92 °F
Forecast: 74 / 86 °F
Wind: 6 mph from West

Location: Jakarta / Soekarno-Hatta

Current Time: Feb 7, 2016 at 8:24:45 AM

Latest Report: Feb 7, 2016 at 8:00 AM


Visibility: 4 mi

Pressure: 29.83 "Hg

Humidity: 89%

Dew point: 79 °F

Location of Bandar LampungLocation

Historic Weather in Bandar Lampung — Graph

°F

Bandar Lampung Temperature Yesterday

Maximum temperature yesterday: 91 °F (at 12:00 PM)
Minimum temperature yesterday: 77 °F (at 5:30 AM)
Average temperature yesterday: 84 °F

High & Low Weather Summary for the Past Weeks

 TemperatureHumidityPressure
High91 °F (Jan 29, 12:30 PM)100% (Jan 23, 7:00 AM)29.95 "Hg (Jan 23, 7:00 AM)
Low73 °F (Jan 24, 8:00 PM)22% (Feb 2, 4:00 AM)29.68 "Hg (Feb 6, 3:00 PM)
Average82 °F86%29.82 "Hg
* Reported Jan 23 7:00 AM — Feb 7 7:00 AM, Bandar Lampung, Weather by CustomWeather, © 2016

Note: Actual official high and low records may vary slightly from our data, if they occured in-between our weather recording intervals... More about our weather records

Advertising

Bandar Lampung Weather History for the Previous 24 Hours

 ConditionsComfort  
Time TempWeatherWind HumidityBarometerVisibility
7:00 AM
Sun, Feb 7
81 °FScattered clouds.5 mph89%29.80 "Hg4 mi
6:00 AM79 °FPartly sunny.5 mph94%29.77 "Hg4 mi
5:30 AM79 °FPassing clouds.5 mph94%29.77 "HgN/A
5:00 AM79 °FPassing clouds.7 mph100%29.77 "Hg4 mi
4:00 AM79 °FPassing clouds.8 mph100%29.74 "Hg4 mi
3:30 AM81 °FPassing clouds.7 mph94%29.74 "Hg4 mi
3:00 AM81 °FPassing clouds.7 mph94%29.77 "Hg4 mi
2:30 AM81 °FPassing clouds.5 mph89%29.77 "Hg3 mi
2:00 AM81 °FPassing clouds.3 mph89%29.77 "Hg3 mi
1:30 AM81 °FOvercast.5 mph89%29.77 "Hg3 mi
1:00 AM81 °FPartly cloudy.2 mph89%29.80 "Hg4 mi
12:30 AM81 °FThundershowers. Mostly cloudy.2 mph89%29.83 "Hg4 mi
12:00 AM81 °FPassing clouds.5 mph89%29.83 "Hg6 mi
11:30 PM
Sat, Feb 6
81 °FPassing clouds.5 mph89%29.83 "Hg4 mi
11:00 PM81 °FPassing clouds.5 mph89%29.83 "Hg4 mi
10:30 PM81 °FPassing clouds.7 mph89%29.83 "Hg4 mi
10:00 PM82 °FPassing clouds.3 mph84%29.83 "Hg4 mi
9:30 PM82 °FPassing clouds.6 mph84%29.83 "Hg4 mi
9:00 PM82 °FPassing clouds.6 mph84%29.80 "Hg4 mi
8:30 PM82 °FPassing clouds.8 mph84%29.80 "Hg4 mi
8:00 PM82 °FPassing clouds.9 mph84%29.77 "Hg4 mi
7:30 PM82 °FPassing clouds.8 mph89%29.77 "Hg4 mi
7:00 PM84 °FThundershowers. Passing clouds.5 mph79%29.74 "Hg3 mi
6:30 PM84 °FThundershowers. Passing clouds.7 mph79%29.74 "Hg4 mi
6:00 PM86 °FThundershowers. Scattered clouds.7 mph75%29.74 "Hg5 mi
5:30 PM86 °FThundershowers. Scattered clouds.9 mph75%29.71 "Hg5 mi
5:00 PM88 °FScattered clouds.12 mph75%29.71 "Hg6 mi
4:30 PM88 °FThundershowers. Scattered clouds.7 mph70%29.71 "HgN/A
4:00 PM90 °FPassing clouds.13 mph71%29.68 "HgN/A
3:30 PM88 °FScattered clouds.9 mph70%29.68 "HgN/A
3:00 PM90 °FPassing clouds.15 mph71%29.68 "HgN/A
2:30 PM90 °FPassing clouds.15 mph71%29.71 "HgN/A
2:00 PM91 °FPassing clouds.14 mph67%29.71 "HgN/A
1:30 PM90 °FPassing clouds.9 mph71%29.71 "HgN/A
1:00 PM90 °FPassing clouds.14 mph71%29.74 "HgN/A
12:30 PM90 °FPassing clouds.14 mph71%29.74 "HgN/A
12:00 PM91 °FPassing clouds.14 mph63%29.77 "HgN/A
11:00 AM90 °FScattered clouds.14 mph67%29.77 "HgN/A
10:30 AM90 °FPassing clouds.12 mph67%29.80 "HgN/A
10:00 AM90 °FPassing clouds.10 mph67%29.80 "HgN/A
9:00 AM84 °FPassing clouds.3 mph79%29.80 "Hg5 mi
8:30 AM82 °FPassing clouds.5 mph84%29.80 "Hg4 mi
Weather by CustomWeather, © 2016

See weather overviewHow to use our weather pages